Tracking 29892 objects as of 21-Nov-2024
HD Live streaming from Space Station
objects crossing your sky now

STARLINK-2610

Track STARLINK-2610 now!
10-day predictions
STARLINK-2610 is classified as:


NORAD ID: 48376
Int'l Code: 2021-038Z
Perigee: 553.2 km
Apogee: 555.5 km
Inclination: 53.1 °
Period: 95.6 minutes
Semi major axis: 6925 km
RCS: Unknown
Launch date: May 4, 2021
Source: United States (US)
Launch site: AIR FORCE EASTERN TEST RANGE (AFETR)
Your satellite tracking list
Your tracking list is empty




NASA's NSSDC Master Catalog

Two Line Element Set (TLE):
1 48376U 21038Z   24325.36280770 -.00002394  00000-0 -14191-3 0  9990
2 48376  53.0538 320.9520 0001627  80.6340 279.4833 15.06394234195673
Source of the keplerian elements: AFSPC